Regional Weather Roundup
Issued by NWS

Home | Current Version | Previous Version | Graphics & Text | Print | Product List | Glossary On
Versions: 1 2 3 4 5 6 7 8 9 10 11 12 13 14 15 16 17 18 19 20 21 22 23 24 25 26 27 28 29 30 31 32 33 34 35 36 37 38 39 40 41 42 43 44 45 46 47 48 49 50
000
ASUS43 KDMX 190901
RWRIA

WEATHER ROUNDUP FOR IOWA
NATIONAL WEATHER SERVICE DES MOINES IA
300 AM CST SUN FEB 19 2017

NOTE: "FAIR" INDICATES FEW OR NO CLOUDS BELOW 12,000 FEET WITH NO
SIGNIFICANT WEATHER AND/OR OBSTRUCTIONS TO VISIBILITY.

* - THESE STATIONS ARE NOT NWS STATIONS...THUS NOT UNDER NWS
QUALITY CONTROL.  THEY ALSO DO NOT REPORT WEATHER SUCH
AS PRECIPITATION OR FOG.

IAZ001>003-012>014-020>022-031>034-043>046-191000-
   NORTHWEST IOWA

CITY           SKY/WX    TMP DP  RH WIND       PRES   REMARKS
CARROLL *      CLOUDY    37  36  93 SE5       29.88S WCI  34
CHEROKEE *     CLOUDY    34  34 100 CALM      29.85F
DENISON *      MOCLDY    43  34  70 E5        29.84S
LE MARS *      PTCLDY    39  36  87 CALM      29.84S
SHELDON *      CLOUDY    37  37 100 CALM      29.83S
SIOUX CITY     CLOUDY    36  31  82 E8        29.82S WCI  30
SPENCER        FOG       31  31 100 SE3       29.86S VSB 1/4
STORM LAKE *   MOCLDY    39  37  93 SE10      29.86S WCI  32
$$

IAZ055>058-069>071-079>083-090>094-191000-
   SOUTHWEST IOWA

CITY           SKY/WX    TMP DP  RH WIND       PRES   REMARKS
ATLANTIC *     CLOUDY    34  32  93 NE3       29.87S
CLARINDA *       N/A     32  30  93 CALM      29.89S
COUNCIL BLFS * CLOUDY    46  34  61 SE10      29.85R
CRESTON *      CLEAR     43  32  65 SE8       29.90S
HARLAN  *      PTCLDY    41  34  75 CALM      29.89S
LAMONI         CLEAR     47  32  56 SE7       29.89S
RED OAK *      CLEAR     45  32  61 CALM      29.87R
SHENANDOAH *   CLEAR     45  37  76 CALM      29.87R
$$

IAZ047>049-059>061-072>074-084-191000-
   CENTRAL IOWA

CITY           SKY/WX    TMP DP  RH WIND       PRES   REMARKS
AMES           FOG       33  33 100 CALM      29.90R VSB 1/4
ANKENY *       CLEAR     32  30  93 CALM      29.92R
BOONE *        CLEAR     39  39 100 SE8       29.89R WCI  34
CHARITON *     CLOUDY    41  30  65 SE7       29.91R
DES MOINES     CLEAR     47  37  68 SE6       29.90S
GRINNELL*      CLOUDY    39  38  95 E6        29.92S WCI  35
KNOXVILLE *    CLOUDY    43  32  65 SE6       29.90R
MARSHALLTOWN   FOG       28  27  96 CALM      29.90R VSB 1/4
NEWTON *       CLOUDY    37  36  93 SE7       29.90S WCI  32
PELLA *        CLOUDY    38  34  84 SE5       29.92S WCI  35
PERRY *          N/A     34  33  97 E3        29.89S FOG
$$

IAZ004>006-015-016-023>025-035-036-191000-
   NORTH CENTRAL IOWA

CITY           SKY/WX    TMP DP  RH WIND       PRES   REMARKS
ALGONA *       CLOUDY    39  39 100 SE9       29.88S FOG     WCI  33
CLARION *      CLEAR     39  39 100 SE8       29.89R WCI  34
ESTHERVILLE    FOG       33  33 100 S5        29.87R VSB 1/4 WCI  29
FORT DODGE *   MOCLDY    32  28  86 CALM      29.89S VSB 1/4
MASON CITY     FOG       30  29  96 S5        29.91R VSB 1/4 WCI  25
FOREST CITY *  FOG       28  27  93 CALM      29.90R VSB 1/4
IOWA FALLS *   FOG       32  31  98 CALM      29.91R VSB 1/4
$$

IAZ007>011-017>019-026>030-037>042-050>054-066-191000-
   NORTHEAST IOWA

CITY           SKY/WX    TMP DP  RH WIND       PRES   REMARKS
CEDAR RAPIDS   CLOUDY    33  33 100 CALM      29.91R
CHARLES CITY * CLEAR     32  32 100 S3        29.91R FOG
CLINTON *      PTCLDY    32  30  92 N3        29.93R
DECORAH *      FOG       34  34 100 CALM      29.90R VSB 1/2
DUBUQUE        CLEAR     36  32  85 CALM      29.91S
MONTICELLO *   CLOUDY    28  27  93 CALM      29.91S
OELWEIN *      CLEAR     37  36  93 SE5       29.91S WCI  34
WATERLOO       FOG       27  26  96 CALM      29.91R VSB 1/4
$$

IAZ064-065-067-068-078-191000-
   EAST CENTRAL IOWA

CITY           SKY/WX    TMP DP  RH WIND       PRES   REMARKS
DAVENPORT      PTCLDY    29  28  96 CALM      29.92R
IOWA CITY      CLOUDY    32  29  88 CALM      29.94R
MUSCATINE *    MOCLDY    32  28  86 CALM      29.94R
QUAD CITIES    PTCLDY    31  26  82 CALM      29.92R
$$

IAZ062-063-075>077-085>089-095>099-191000-
   SOUTHEAST IOWA

CITY           SKY/WX    TMP DP  RH WIND       PRES   REMARKS
BURLINGTON     CLOUDY    38  32  79 N6        29.92R WCI  33
FAIRFIELD *    CLOUDY    36  30  80 E5        29.92R WCI  32
KEOKUK *       PTCLDY    39  36  87 CALM      29.91S
OTTUMWA        CLOUDY    36  32  85 E7        29.91S WCI  30
WASHINGTON *   CLOUDY    36  36 100 CALM      29.93S FOG
$$

ABBREVIATIONS USED IN REMARKS
   TC - TEMPERATURES IN CELSIUS
  WCI - WIND CHILL INDEX
   HX - HEAT INDEX
  VSB - VISIBILITY
$$




USA.gov is the U.S. government's official web portal to all federal, state and local government web resources and services.